Wind_Speed
9 11 12 14 15 16 18 18 19 21 24 26 29 30 31 36 40 44 49 54 60 66 70 73 76 78 80 81 83 84 84 83 80 77 74 71 68 67 65 64 63 62 61 60
11 13 14 15 17 17 18 20 20 20 23 27 30 31 32 37 42 47 53 59 64 69 73 76 79 80 82 83 84 84 83 81 78 75 72 69 66 64 62 60 59 58 58 58
13 14 15 17 18 18 19 21 23 25 25 27 32 33 34 40 46 51 58 63 68 73 78 79 81 81 82 83 83 82 81 78 75 70 66 63 60 57 55 53 52 52 51 52
15 16 17 18 18 19 20 21 22 25 27 29 32 36 38 45 50 57 62 67 72 77 79 80 81 81 82 82 82 80 77 73 68 65 63 60 58 56 54 53 51 50 49 48
16 17 18 18 19 20 21 22 24 26 29 30 32 38 44 50 55 60 65 70 75 79 79 79 81 82 82 81 79 77 71 67 65 63 62 60 59 58 57 55 53 50 48 47
18 19 19 20 21 21 23 24 24 27 32 36 40 44 47 53 59 64 70 73 76 77 78 80 81 81 81 80 77 71 67 64 63 62 62 61 61 59 57 55 51 48 46 45
18 19 19 20 21 22 23 26 30 34 36 38 40 43 49 56 62 67 71 74 76 78 80 80 81 80 79 77 72 67 65 64 63 63 62 62 62 60 58 53 49 46 44 43
18 18 19 20 22 23 25 27 30 33 35 37 41 46 53 58 63 67 72 76 78 79 79 80 80 79 77 73 69 65 64 64 64 63 63 62 62 59 55 51 48 46 45 43
18 19 20 21 23 24 26 27 29 32 36 40 45 49 54 59 64 69 73 76 77 78 79 79 79 78 75 70 66 65 65 65 64 63 63 62 60 56 52 49 47 46 45 44
18 18 20 21 22 24 26 29 31 34 39 44 47 52 56 60 65 71 74 75 76 78 79 78 78 76 72 68 65 65 65 65 65 63 62 61 58 55 52 50 48 47 46 45
18 18 19 21 22 24 26 29 31 35 39 45 50 54 57 62 67 72 75 76 77 78 78 77 77 74 69 66 65 65 66 65 64 62 61 59 57 54 53 52 50 48 47 46
19 19 19 20 22 25 27 31 34 36 40 44 48 55 58 64 69 73 75 76 77 77 76 77 75 71 66 64 64 65 66 65 63 61 59 58 57 56 55 55 53 52 50 48
20 21 22 22 23 24 27 30 34 37 40 44 49 55 60 65 70 74 75 75 76 76 76 76 73 68 64 63 64 65 65 64 62 60 58 58 58 58 58 57 56 55 54 52
21 22 23 26 28 30 32 33 35 38 42 45 49 55 61 66 71 73 74 75 76 76 75 74 70 65 63 63 65 65 65 63 60 59 58 59 60 61 60 60 59 59 58 55
22 22 23 25 27 28 31 33 35 38 42 46 50 56 61 66 71 74 75 75 76 75 74 72 68 63 62 63 65 65 64 61 59 58 59 61 62 62 62 62 63 62 60 56
27 25 25 24 25 27 30 33 36 39 43 47 52 57 62 67 71 74 75 75 75 74 73 70 65 61 61 63 64 64 63 60 58 58 60 62 63 63 64 64 66 66 61 53
32 32 31 30 30 31 33 37 40 41 44 49 54 58 63 68 72 74 74 74 74 73 71 68 63 60 60 63 64 64 62 60 58 59 61 63 64 65 66 68 70 68 59 46
36 37 37 36 36 35 38 39 42 44 45 50 55 59 64 69 72 73 73 73 73 71 70 66 61 58 60 62 64 63 61 59 58 59 62 64 65 66 67 70 72 68 56 41
38 41 42 42 43 41 40 42 45 47 47 51 56 60 65 69 73 73 72 72 71 70 68 64 59 57 59 62 63 62 60 58 57 59 62 64 66 67 68 71 73 68 55 40
38 41 44 45 46 46 45 46 46 48 50 54 57 61 65 69 71 72 71 70 70 69 67 62 58 57 59 61 61 61 59 58 58 60 63 65 67 68 69 72 74 69 57 42
39 43 46 48 48 46 49 48 48 48 51 54 57 61 64 68 71 71 70 69 68 67 65 61 57 56 58 59 60 60 59 58 58 60 63 65 67 68 69 71 74 71 61 46
41 45 49 53 55 53 53 51 49 49 50 53 57 60 64 68 70 70 68 68 67 66 64 60 56 55 57 58 59 59 58 58 58 60 62 64 66 68 68 69 71 71 66 52
41 45 49 52 54 55 55 52 50 49 50 53 57 60 63 67 69 68 67 67 66 65 63 59 55 54 56 57 57 57 57 57 58 59 60 62 65 67 68 68 69 70 69 61
40 44 48 52 55 56 55 53 50 49 50 53 56 59 63 67 68 67 66 66 65 64 62 58 54 53 54 56 56 56 56 57 57 57 58 60 63 66 68 68 68 69 69 67
43 46 49 52 55 57 56 54 51 50 50 53 56 59 62 66 67 66 65 64 64 63 61 57 53 52 53 54 54 54 55 55 55 56 57 59 61 64 67 68 68 68 69 68
42 45 49 52 56 59 58 56 53 50 51 53 56 58 61 64 66 65 64 63 62 61 60 56 52 50 51 52 53 53 53 54 54 54 56 57 59 61 64 66 68 68 67 66
Wind_Direction
312 312 313 315 315 315 315 315 317 319 319 321 322 325 328 323 323 323 323 324 325 325 325 325 324 323 323 321 320 318 316 315 314 313 311 309 306 303 300 296 293 289 285 282
319 319 320 320 318 318 318 318 318 318 318 321 323 327 327 323 324 326 327 328 327 326 327 327 326 325 324 322 321 319 318 318 317 316 314 313 310 308 305 302 298 294 289 284
328 328 327 326 325 324 322 321 321 322 325 327 325 325 327 326 328 329 329 328 328 328 329 328 327 326 325 324 322 322 321 321 321 320 319 318 316 314 312 308 305 300 295 289
335 334 333 330 328 326 323 323 325 326 328 329 326 324 331 330 331 331 330 331 331 331 330 329 328 327 326 326 325 325 325 325 324 324 323 322 321 319 317 314 310 306 301 296
334 334 333 331 329 329 328 330 331 328 326 327 329 333 337 334 332 332 333 334 334 332 331 330 330 329 328 328 327 328 329 328 327 327 326 325 324 323 321 318 315 310 306 300
332 332 332 332 332 332 331 330 328 329 332 337 338 337 334 333 334 336 337 336 334 333 332 332 331 331 330 329 330 331 331 331 330 329 328 327 326 325 323 321 318 314 311 305
330 332 333 333 333 332 333 334 336 336 338 337 333 332 336 338 339 339 337 336 334 334 334 333 332 332 331 332 333 333 333 332 332 330 329 328 327 326 325 323 321 319 316 313
334 335 337 336 336 336 337 336 336 335 332 330 331 338 340 339 339 338 337 336 336 336 335 334 334 333 333 334 335 335 335 334 333 332 331 330 329 328 327 326 323 322 320 318
338 339 340 339 337 337 336 335 335 332 331 335 337 338 338 340 338 337 338 338 337 336 336 335 335 335 335 336 337 337 336 335 335 334 333 332 332 331 330 328 325 323 321 321
340 341 341 340 339 336 334 334 334 335 336 336 336 338 340 339 338 339 340 339 338 337 337 337 336 337 337 338 338 338 337 337 337 336 335 335 335 334 333 330 327 324 322 320
341 342 342 341 339 336 335 335 336 337 338 337 336 338 339 339 340 341 341 340 339 339 338 338 338 338 339 339 339 339 338 339 339 338 338 338 337 336 334 331 328 325 322 319
342 341 343 343 341 338 337 337 338 338 336 335 334 337 339 340 341 342 342 341 340 339 339 339 339 340 340 340 340 340 340 341 341 341 341 340 339 337 334 331 328 324 321 318
344 343 342 343 343 339 338 338 338 336 335 335 337 339 340 341 342 343 343 342 341 340 340 340 340 341 341 342 342 342 342 343 344 344 344 343 340 338 335 332 328 325 321 317
348 346 344 343 344 342 339 339 337 335 335 337 339 340 342 343 344 344 343 342 342 342 341 341 341 342 342 343 343 344 344 345 346 346 346 344 342 340 337 334 330 327 322 316
353 350 347 344 342 339 335 334 335 335 336 338 340 342 343 343 344 344 344 343 343 342 342 342 342 343 344 345 345 346 347 347 348 349 348 347 345 343 340 337 334 330 325 319
357 353 350 345 340 337 333 333 335 337 337 339 341 343 343 343 345 345 345 344 344 343 343 344 344 344 345 346 347 348 349 350 351 351 350 350 348 346 344 341 339 336 332 326
0 357 353 347 342 340 336 337 337 338 339 340 342 343 343 344 346 346 345 345 344 345 345 345 345 345 347 348 349 351 352 353 353 353 353 353 352 350 348 347 346 344 341 337
2 359 356 350 345 344 338 336 336 338 340 340 342 343 343 344 345 346 346 345 346 346 346 346 347 347 348 350 352 353 354 354 355 356 356 356 355 355 354 353 352 352 351 350
3 360 357 352 347 344 339 338 337 337 340 340 341 342 343 344 345 347 347 346 346 347 347 348 348 349 350 352 354 355 356 357 357 358 359 359 360 359 359 359 359 360 0 1
359 360 356 353 347 344 342 339 337 337 339 340 341 342 343 344 345 347 347 347 347 348 349 349 350 351 352 354 356 357 358 359 360 1 2 3 3 4 4 4 6 6 7 9
355 356 355 353 350 346 344 341 339 337 338 339 340 341 342 344 346 347 347 348 348 349 350 350 351 353 354 356 357 359 0 1 3 4 5 6 7 7 8 9 11 12 13 13
350 352 353 352 351 348 345 342 339 337 336 337 339 341 342 344 346 348 348 348 349 350 351 352 353 354 356 358 359 1 2 4 5 6 6 8 10 11 12 13 15 17 18 19
346 348 350 350 349 348 345 341 338 336 335 337 338 340 342 344 346 348 348 349 350 351 352 353 354 355 357 359 1 2 4 5 7 8 8 10 12 13 15 17 18 20 22 23
341 345 347 348 348 347 344 342 338 336 336 337 338 340 342 344 346 348 349 350 351 352 353 354 355 357 359 0 2 3 5 7 9 9 10 12 14 15 17 19 21 22 24 26
336 340 343 345 345 345 344 342 339 337 337 337 338 340 342 344 346 348 349 350 351 353 354 355 356 358 360 2 3 4 6 8 10 10 11 13 16 17 18 20 22 24 25 27
332 336 339 342 343 344 343 342 340 338 337 338 338 340 342 344 346 348 349 350 352 353 355 355 357 358 1 3 4 5 7 9 11 11 12 15 17 18 20 22 23 25 26 28
Height
5882 5882 5879 5877 5875 5873 5870 5868 5866 5863 5859 5856 5853 5850 5846 5839 5833 5825 5817 5808 5799 5788 5775 5763 5749 5736 5721 5707 5692 5677 5661 5646 5632 5620 5608 5598 5588 5578 5569 5561 5554 5549 5545 5542
5882 5879 5877 5875 5873 5871 5868 5866 5863 5861 5857 5853 5849 5846 5841 5834 5827 5818 5809 5800 5789 5777 5764 5750 5736 5722 5707 5692 5675 5659 5643 5628 5615 5602 5590 5578 5568 5558 5549 5541 5534 5528 5524 5521
5880 5878 5875 5873 5870 5868 5865 5863 5859 5856 5853 5849 5844 5841 5836 5827 5819 5811 5801 5791 5779 5766 5752 5738 5724 5709 5693 5677 5660 5643 5627 5613 5599 5586 5574 5564 5554 5544 5535 5527 5518 5511 5505 5501
5878 5876 5874 5871 5868 5865 5863 5860 5856 5852 5848 5845 5841 5834 5829 5819 5811 5802 5792 5781 5768 5755 5741 5726 5711 5695 5679 5662 5645 5628 5613 5598 5585 5572 5561 5550 5539 5530 5521 5512 5504 5496 5489 5484
5877 5874 5872 5869 5866 5863 5860 5856 5853 5848 5844 5840 5834 5827 5821 5812 5804 5795 5784 5771 5758 5744 5730 5714 5698 5681 5664 5647 5631 5615 5600 5587 5574 5560 5549 5538 5527 5516 5507 5498 5489 5482 5475 5469
5875 5872 5870 5867 5863 5860 5856 5854 5850 5845 5839 5832 5826 5821 5816 5807 5797 5786 5774 5762 5749 5734 5719 5702 5685 5668 5652 5635 5619 5604 5590 5577 5564 5551 5538 5527 5516 5505 5495 5485 5476 5469 5461 5455
5874 5871 5868 5865 5861 5858 5854 5850 5844 5838 5832 5828 5824 5818 5812 5800 5789 5778 5766 5754 5740 5724 5707 5691 5675 5658 5641 5625 5609 5594 5581 5567 5554 5541 5529 5517 5505 5493 5482 5472 5464 5456 5449 5442
5872 5870 5866 5862 5859 5855 5850 5847 5842 5836 5831 5827 5820 5811 5805 5795 5784 5773 5760 5746 5730 5714 5697 5680 5664 5647 5630 5614 5599 5585 5571 5558 5545 5532 5519 5507 5494 5482 5471 5461 5453 5445 5437 5430
5870 5867 5863 5859 5855 5852 5848 5844 5840 5834 5827 5820 5814 5808 5799 5789 5779 5767 5753 5737 5720 5705 5687 5670 5653 5636 5620 5605 5591 5577 5563 5550 5536 5523 5510 5497 5485 5473 5462 5452 5443 5435 5427 5419
5868 5866 5862 5858 5854 5850 5846 5841 5836 5830 5823 5815 5809 5802 5794 5783 5772 5758 5744 5728 5712 5696 5679 5661 5644 5628 5612 5597 5583 5569 5555 5541 5528 5514 5501 5488 5476 5464 5454 5444 5435 5426 5417 5409
5867 5864 5861 5857 5852 5848 5843 5838 5833 5827 5820 5811 5802 5799 5789 5776 5764 5750 5735 5720 5703 5687 5670 5653 5636 5620 5605 5590 5576 5563 5549 5534 5520 5507 5493 5480 5468 5457 5446 5435 5425 5415 5406 5397
5865 5862 5859 5856 5851 5846 5840 5834 5829 5824 5817 5809 5800 5794 5781 5769 5756 5742 5728 5711 5695 5679 5662 5645 5629 5613 5599 5585 5571 5556 5542 5527 5513 5500 5486 5473 5461 5449 5437 5425 5414 5404 5394 5385
5864 5861 5857 5853 5851 5845 5839 5833 5826 5820 5813 5805 5796 5789 5775 5762 5749 5734 5719 5704 5688 5672 5655 5638 5622 5607 5593 5580 5565 5550 5535 5521 5507 5493 5480 5467 5454 5441 5428 5415 5403 5391 5380 5370
5862 5859 5855 5851 5844 5838 5833 5828 5823 5816 5808 5800 5791 5781 5768 5755 5742 5727 5713 5698 5682 5665 5649 5632 5617 5602 5588 5574 5560 5545 5530 5515 5501 5488 5475 5461 5447 5433 5418 5404 5390 5376 5363 5352
5861 5858 5853 5848 5843 5837 5831 5826 5820 5813 5804 5796 5787 5776 5763 5750 5737 5722 5707 5692 5676 5659 5643 5627 5612 5598 5584 5571 5556 5540 5525 5511 5497 5483 5470 5455 5440 5425 5409 5393 5377 5361 5345 5331
5860 5856 5852 5848 5842 5836 5830 5823 5816 5809 5800 5790 5781 5770 5758 5745 5732 5717 5702 5687 5671 5654 5638 5622 5607 5594 5580 5567 5552 5537 5522 5507 5493 5480 5466 5450 5435 5418 5401 5384 5365 5346 5327 5311
5857 5853 5848 5844 5838 5833 5826 5818 5811 5804 5795 5785 5775 5765 5752 5739 5727 5712 5697 5682 5666 5650 5634 5618 5604 5590 5577 5563 5548 5533 5518 5504 5490 5477 5462 5446 5430 5413 5394 5375 5354 5332 5312 5297
5855 5850 5844 5839 5834 5827 5823 5813 5805 5798 5790 5780 5770 5759 5748 5735 5722 5708 5693 5678 5662 5646 5630 5615 5601 5587 5574 5560 5545 5530 5516 5502 5489 5475 5460 5444 5427 5409 5390 5370 5348 5325 5304 5290
5853 5847 5841 5834 5827 5822 5817 5808 5799 5791 5785 5775 5765 5754 5743 5730 5717 5704 5689 5674 5658 5643 5627 5612 5598 5585 5572 5558 5543 5529 5515 5501 5487 5473 5458 5442 5425 5407 5388 5368 5345 5322 5303 5290
5852 5846 5840 5832 5823 5816 5812 5803 5794 5787 5779 5770 5760 5749 5738 5726 5714 5700 5684 5669 5654 5639 5624 5609 5596 5583 5570 5556 5542 5528 5514 5501 5487 5472 5457 5441 5424 5406 5387 5368 5346 5324 5306 5293
5849 5844 5837 5829 5821 5814 5807 5797 5789 5782 5774 5764 5755 5745 5734 5722 5710 5696 5680 5666 5651 5636 5621 5606 5593 5581 5569 5555 5541 5527 5514 5500 5486 5472 5457 5442 5425 5408 5390 5371 5350 5330 5312 5299
5844 5838 5831 5823 5815 5810 5800 5791 5784 5778 5768 5760 5750 5740 5730 5718 5704 5691 5677 5662 5647 5633 5618 5604 5591 5580 5568 5554 5541 5528 5514 5501 5487 5473 5460 5445 5429 5413 5395 5377 5359 5340 5323 5308
5842 5836 5829 5822 5816 5806 5796 5788 5780 5772 5764 5755 5746 5736 5725 5714 5701 5687 5674 5660 5645 5630 5616 5602 5590 5579 5567 5554 5541 5529 5516 5503 5489 5477 5463 5449 5434 5418 5401 5385 5368 5351 5334 5319
5839 5833 5826 5818 5810 5802 5793 5784 5776 5768 5759 5751 5742 5732 5721 5710 5697 5684 5671 5657 5643 5628 5614 5601 5589 5578 5566 5554 5542 5530 5517 5504 5492 5480 5467 5454 5439 5424 5408 5393 5377 5361 5346 5331
5833 5827 5821 5815 5807 5799 5790 5780 5771 5763 5754 5746 5737 5727 5717 5705 5693 5681 5667 5654 5640 5627 5613 5600 5589 5578 5566 5555 5543 5531 5519 5507 5496 5484 5472 5458 5444 5430 5415 5400 5385 5369 5355 5341
5830 5824 5817 5811 5803 5794 5785 5776 5767 5758 5750 5742 5733 5723 5713 5702 5690 5677 5665 5652 5638 5625 5612 5599 5588 5577 5567 5556 5545 5533 5522 5510 5499 5488 5476 5464 5450 5437 5423 5408 5394 5380 5366 5354